Weather History for KMVY - May, 2013

Change the Weather History Date:

Saturday, May 18, 2013

  Actual Average Record
Temperature  
Mean Temperature 50 °F -  
Max Temperature 66 °F 64 °F 78 °F (1998)
Min Temperature 37 °F 47 °F 34 °F (1983)
Degree Days  
Heating Degree Days 14    
Moisture  
Dew Point 45 °F    
Average Humidity 77    
Maximum Humidity 93    
Minimum Humidity 52    
Precipitation  
Precipitation 0.00 in - - ()
Sea Level Pressure  
Sea Level Pressure 30.29 in    
Wind  
Wind Speed 4 mph (SW)    
Max Wind Speed 15 mph    
Max Gust Speed 18 mph    
Visibility 9 miles    
Events      
Averages and records for this station are not official NWS values.
T = Trace of Precipitation, MM = Missing Value Source: NWS Daily Summary

Daily Weather History Graph

Daily Weather History Graph

Search for Another Location

Airport or City:

Trip Planner

Search our weather history database for the weather conditions in past years. The results will help you decide how hot, cold, wet, or windy it might be!

Date:

Astronomy

May. 18, 2013 Rise Set
Actual Time 5:20 AM EDT 7:57 PM EDT
Civil Twilight 4:48 AM EDT 8:29 PM EDT
Nautical Twilight 4:09 AM EDT 9:09 PM EDT
Astronomical Twilight 3:24 AM EDT 9:54 PM EDT
Moon 12:53 PM EDT (5/18) 1:16 AM EDT (5/18)
Length of Visible Light 15h 40m
Length of Day
14h 37m
First Quarter, 55% of the Moon is Illuminated
May 18
First Quarter
May 25
Full
May 31
Last Quarter
Jun 8
New
Jun 16
First Quarter

Hourly Weather History & Observations

Time (EDT) Temp. Windchill Dew Point Humidity Pressure Visibility Wind Dir Wind Speed Gust Speed Precip Events Conditions
12:53 AM 41.0 °F - 39.0 °F 93% 30.23 in 10.0 mi Calm Calm - N/A   Clear
1:53 AM 37.0 °F - 35.1 °F 93% 30.23 in 10.0 mi Calm Calm - N/A   Clear
2:43 AM 39.2 °F - 37.4 °F 93% 30.23 in 1.5 mi Calm Calm - N/A   Clear
2:53 AM 39.0 °F - 37.0 °F 93% 30.23 in 2.0 mi Calm Calm - N/A   Clear
3:00 AM 39.2 °F - 35.6 °F 87% 30.23 in 6.0 mi Calm Calm - N/A   Clear
3:53 AM 37.0 °F 34.5 °F 34.0 °F 89% 30.24 in 10.0 mi WNW 3.5 mph - N/A   Clear
4:53 AM 37.9 °F - 35.1 °F 89% 30.26 in 10.0 mi Calm Calm - N/A   Clear
5:53 AM 37.0 °F - 35.1 °F 93% 30.27 in 10.0 mi Calm Calm - N/A   Clear
6:53 AM 52.0 °F - 46.9 °F 83% 30.29 in 10.0 mi WSW 3.5 mph - N/A   Clear
7:53 AM 57.9 °F - 46.0 °F 65% 30.30 in 10.0 mi West 5.8 mph - N/A   Clear
8:53 AM 61.0 °F - 45.0 °F 56% 30.32 in 10.0 mi West 10.4 mph - N/A   Clear
9:53 AM 64.0 °F - 46.0 °F 52% 30.33 in 10.0 mi West 10.4 mph - N/A   Clear
10:53 AM 64.9 °F - 46.9 °F 52% 30.32 in 10.0 mi SW 9.2 mph 18.4 mph N/A   Clear
11:53 AM 64.9 °F - 48.9 °F 56% 30.32 in 10.0 mi SSW 10.4 mph - N/A   Clear
12:53 PM 64.0 °F - 50.0 °F 60% 30.31 in 10.0 mi SW 13.8 mph - N/A   Clear
1:53 PM 63.0 °F - 50.0 °F 63% 30.30 in 10.0 mi SSW 15.0 mph - N/A   Scattered Clouds
3:53 PM 61.0 °F - 48.9 °F 64% 30.30 in 10.0 mi SSW 12.7 mph - N/A   Partly Cloudy
4:53 PM 60.1 °F - 50.0 °F 69% 30.31 in 10.0 mi South 10.4 mph - N/A   Clear
5:53 PM 59.0 °F - 50.0 °F 72% 30.31 in 10.0 mi SW 11.5 mph - N/A   Clear
6:53 PM 57.9 °F - 51.1 °F 78% 30.31 in 10.0 mi SSW 10.4 mph - N/A   Scattered Clouds
7:53 PM 55.9 °F - 52.0 °F 87% 30.32 in 10.0 mi SW 11.5 mph - N/A   Clear
8:53 PM 55.9 °F - 52.0 °F 87% 30.32 in 10.0 mi SW 8.1 mph - N/A   Clear
9:53 PM 55.0 °F - 52.0 °F 89% 30.33 in 10.0 mi SW 8.1 mph - N/A   Clear
10:53 PM 54.0 °F - 51.1 °F 90% 30.32 in 10.0 mi SW 4.6 mph - N/A   Clear